Flag for Belgium Weather past 2 weeks in Brussels, Belgium

Now
63 °F

Scattered clouds.


Feels Like: 63 °F
Forecast: 53 / 66 °F
Wind: 16 mph from West

Location: Brussels National Airport

Current Time: Jul 28, 2015 at 3:49:43 PM

Latest Report: Jul 28, 2015 at 2:50 PM


Visibility: N/A

Pressure: 29.77 "Hg

Humidity: 68%

Dew point: 52 °F

Location of BrusselsLocation

Historic Weather in Brussels — Graph

°F

Brussels temperature yesterday

Maximum temperature yesterday: 70 °F (at 4:50 PM)
Minimum temperature yesterday: 57 °F (at 12:20 AM)
Average temperature yesterday: 62 °F

Past Weeks' High & Low Weather Summary

 TemperatureHumidityPressure
High84 °F (Jul 16, 5:20 PM)100% (Jul 13, 2:20 PM)30.12 "Hg (Jul 13, 2:20 PM)
Low50 °F (Jul 25, 11:50 PM)36% (Jul 18, 4:50 PM)29.50 "Hg (Jul 25, 3:50 AM)
Average66 °F73%29.92 "Hg
* Reported Jul 13 2:20 PM — Jul 28 2:50 PM, Brussels, Weather by CustomWeather, © 2015

Note: Actual official high and low records may vary slightly from our data, if they occured in-between our weather recording intervals... More about our weather records

Advertising

Brussels weather history for previous 24 hours

 ConditionsComfort  
Time TempWeatherWind HumidityBarometerVisibility
2:50 PM
Tue, Jul 28
63 °FScattered clouds.16 mph68%29.77 "HgN/A
2:20 PM61 °FSprinkles. Scattered clouds.14 mph72%29.74 "HgN/A
1:50 PM61 °FScattered clouds.9 mph77%29.74 "HgN/A
1:20 PM61 °FScattered clouds.12 mph72%29.74 "HgN/A
12:50 PM59 °FPassing clouds.14 mph82%29.74 "HgN/A
12:20 PM57 °FPassing clouds.16 mph77%29.74 "HgN/A
11:50 AM57 °FPartly sunny.17 mph82%29.74 "HgN/A
11:20 AM55 °FLight rain. Partly sunny.17 mph88%29.74 "Hg5 mi
10:50 AM57 °FLight rain. Scattered clouds.14 mph82%29.74 "HgN/A
10:20 AM59 °FLight rain. Broken clouds.14 mph72%29.71 "Hg6 mi
9:50 AM59 °FLight rain. Broken clouds.18 mph72%29.71 "Hg4 mi
9:20 AM59 °FLight rain. Partly sunny.16 mph72%29.71 "HgN/A
8:50 AM59 °FLight rain. Partly sunny.14 mph72%29.71 "HgN/A
8:20 AM57 °FPartly sunny.15 mph77%29.71 "HgN/A
7:50 AM57 °FLight rain. Scattered clouds.15 mph77%29.71 "HgN/A
7:20 AM57 °FLight rain. Scattered clouds.16 mph77%29.68 "HgN/A
6:50 AM57 °FPassing clouds.16 mph77%29.68 "HgN/A
6:20 AM57 °FPassing clouds.17 mph77%29.68 "HgN/A
5:50 AM57 °FPassing clouds.16 mph77%29.68 "HgN/A
5:20 AM57 °FClear.16 mph72%29.68 "Hg10 mi
4:50 AM57 °FPassing clouds.16 mph72%29.68 "HgN/A
4:20 AM57 °FClear.17 mph72%29.68 "Hg10 mi
3:50 AM57 °FClear.17 mph72%29.68 "Hg10 mi
3:20 AM57 °FClear.15 mph72%29.68 "Hg10 mi
2:50 AM59 °FClear.17 mph68%29.68 "Hg10 mi
2:20 AM57 °FClear.16 mph72%29.68 "Hg10 mi
1:50 AM57 °FClear.15 mph72%29.68 "Hg10 mi
1:20 AM57 °FClear.18 mph72%29.68 "Hg10 mi
12:50 AM57 °FClear.18 mph67%29.68 "Hg10 mi
11:20 PM
Mon, Jul 27
61 °FPassing clouds.17 mph63%29.68 "HgN/A
10:50 PM61 °FPassing clouds.18 mph59%29.68 "HgN/A
10:20 PM61 °FScattered clouds.22 mph59%29.68 "HgN/A
9:50 PM63 °FBroken clouds.20 mph59%29.68 "HgN/A
9:20 PM63 °FScattered clouds.16 mph64%29.68 "HgN/A
8:50 PM64 °FBroken clouds.20 mph60%29.68 "HgN/A
8:20 PM64 °FBroken clouds.22 mph64%29.65 "HgN/A
7:50 PM64 °FBroken clouds.21 mph68%29.65 "HgN/A
7:20 PM64 °FScattered clouds.17 mph73%29.65 "HgN/A
6:50 PM64 °FScattered clouds.20 mph73%29.65 "HgN/A
6:20 PM68 °FPassing clouds.21 mph60%29.65 "HgN/A
5:50 PM66 °FPassing clouds.21 mph64%29.62 "HgN/A
5:20 PM66 °FScattered clouds.22 mph64%29.62 "HgN/A
4:50 PM70 °FScattered clouds.23 mph57%29.62 "HgN/A
4:20 PM68 °FScattered clouds.22 mph64%29.62 "HgN/A
3:50 PM64 °FScattered clouds.17 mph68%29.62 "HgN/A
3:20 PM66 °FScattered clouds.21 mph64%29.62 "HgN/A
Weather by CustomWeather, © 2015

See weather overviewHow to use our weather pages